Regional Weather Roundup
Issued by NWS Glasgow, MT

Home | Current Version | Previous Version | Text Only | Print | Product List | Glossary On
Versions: 1 2 3 4 5 6 7 8 9 10 11 12 13 14 15 16 17 18 19 20 21 22 23 24 25 26 27 28 29 30 31 32 33 34 35 36 37 38 39 40 41 42 43 44 45 46 47 48 49 50
000
ASUS45 KGGW 270315
RWRGGW
HOURLY WEATHER ROUNDUP FOR NORTHEAST MONTANA
NATIONAL WEATHER SERVICE GLASGOW MONTANA
900 PM MDT THU MAR 26 2015

NOTE: "FAIR" INDICATES FEW OR NO CLOUDS BELOW 12,000 FEET WITH NO
SIGNIFICANT WEATHER AND/OR OBSTRUCTIONS TO VISISBILITY.

NORTHEAST MONTANA


CITY           SKY/WX    TMP DP  RH WIND       PRES   REMARKS
GLASGOW        CLOUDY    43  33  68 E15       30.04S
PLENTYWOOD       N/A     39  32  76 SE7         N/A
WOLF POINT     CLOUDY    42  35  76 NE8       30.09S
JORDAN           N/A     51  34  52 SE3       30.04R
WINNETT          N/A     52  38  58 SW3         N/A
SIDNEY         CLOUDY    39  30  70 SE6       30.13F
GLENDIVE         N/A     43  32  65 SE7       30.10F
MALTA            N/A     48  30  49 SE8         N/A
SCOBEY           N/A     36  26  67 SE10G16   30.05F

FORT PECK REPORTS


CITY           SKY/WX    TMP DP  RH WIND       PRES   REMARKS
FORT PECK        N/A     45  34  65 E15         N/A
THE PINES        N/A     47  32  56 E3          N/A

SOUTHEAST MONTANA


CITY           SKY/WX    TMP DP  RH WIND       PRES   REMARKS
BILLINGS       CLOUDY    59  35  40 NW18      30.08R
MILES CITY     CLOUDY    48  29  47 E9        30.06S
BAKER          CLOUDY    40  32  73 SE14G20   30.12S
LIVINGSTON     CLOUDY    56  34  43 W18       30.21R

CENTRAL MONTANA


CITY           SKY/WX    TMP DP  RH WIND       PRES   REMARKS
HAVRE          CLOUDY    55  38  52 W12       30.02S
LEWISTOWN      CLOUDY    56  36  47 NW7       30.10R
GREAT FALLS    PTCLDY    50  36  58 SW10      30.12R
CUT BANK       PTCLDY    49  37  63 W17       30.08
HELENA         CLOUDY    56  37  49 W14G24    30.22R
BUTTE          PTCLDY    48  34  58 NW9       30.30R
BOZEMAN        MOCLDY    49  36  61 NW6       30.25R

WESTERN MONTANA


CITY           SKY/WX    TMP DP  RH WIND       PRES   REMARKS
MISSOULA       CLEAR     47  40  76 CALM      30.29R
KALISPELL      NOT AVBL

NORTH DAKOTA


CITY           SKY/WX    TMP DP  RH WIND       PRES   REMARKS
WILLISTON      CLOUDY    38  27  64 SE7       30.14S
DICKINSON      CLOUDY    33  27  78 SE9       30.14F
MINOT          PTCLDY    29  19  66 SE9       30.21S
BISMARCK       PTCLDY    26  18  71 E5        30.25R

SOUTHERN SASKATCHEWAN


CITY           SKY/WX    TMP DP  RH WIND       PRES   REMARKS
REGINA         MOCLDY    34  30  86 SE16      30.10F
ESTEVAN        PTCLDY    30  25  80 SE10      30.16F
SWIFT CURRENT  CLOUDY    41  32  70 SE8       29.97F



USA.gov is the U.S. government's official web portal to all federal, state and local government web resources and services.